SOYUZ-MS 09 (43493 NORAD) Tracking and Keplerian Element Data

This shows tracking and keplerian element data for the satellite.

Feedback or suggestion? Click here.




ElementValue
Catalog43493
NameSOYUZ-MS 09
Epoch Orbit12277
Epoch Day195.55783479
Epoch Year2018
RAAN242.2861
Inclination51.6393
Eccentricity0.0003907
Argument of Perigee314.2604
Mean Anonmoly201.7881
Mean Motion15.53971522
Decay Rate8.32E-06
L11 43493U 18051A 18195.55783479 .00000832 00000-0 19913-4 0 9990
L22 43493 51.6393 242.2861 0003907 314.2604 201.7881 15.53971522122772

Live tracking and technical data element details for SOYUZ-MS 09 (NORAD 43493). SOYUZ-MS 09 can be tracked NOW for your location showing map with azimuth and elevation plus other details from your city location.

Track the satellite on the map from your city or location and see movement details for azimuth, elevation, latitude, longitude, range, height, and movement on the map or in text.







IsCatalogInMostPopularTable: catalog: 43493, numindb: 18
Update: records affected: 1



GetName: 43493 SOYUZ-MS 09

Hit Count: updated at: Sun, 15 Jul 2018 23:07:16 GMT